Flag for Canada Weather past 2 weeks in Sidney, British Columbia, Canada

Now
63 °F

Partly sunny.


Feels Like: 63 °F
Forecast: 56 / 64 °F
Wind: 3 mph from East

Location: Victoria Int. Airportb. C.

Current Time: Sep 22, 2014 at 7:24:03 PM

Latest Report: Sep 22, 2014 at 7:00 PM


Visibility: 20 mi

Pressure: 29.93 "Hg

Humidity: 77%

Dew point: 55 °F

Location of SidneyLocation

Historic Weather in Sidney — Graph

°F

Sidney temperature yesterday

Maximum temperature yesterday: 73 °F (at 12:00 PM)
Minimum temperature yesterday: 54 °F (at 4:00 AM)
Average temperature yesterday: 62 °F

Past Weeks' High & Low Weather Summary

 TemperatureHumidityPressure
High81 °F (Sep 15, 4:00 PM)100% (Sep 18, 5:00 AM)30.34 "Hg (Sep 18, 5:00 AM)
Low45 °F (Sep 12, 4:00 AM)19% (Sep 11, 4:00 PM)29.72 "Hg (Sep 18, 4:00 AM)
Average61 °F69%29.96 "Hg
* Reported Sep 7 6:00 PM — Sep 22 6:00 PM, Sidney, Weather by CustomWeather, © 2014

Note: Actual official high and low records may vary slightly from our data, if they occured in-between our weather recording intervals... More about our weather records

Advertising

Sidney weather history for previous 24 hours

 ConditionsComfort  
Time TempWeatherWind HumidityBarometerVisibility
6:00 PM
Sep 22
63 °FPartly sunny.5 mph77%29.93 "Hg20 mi
5:00 PM63 °FPartly sunny.7 mph77%29.94 "Hg20 mi
4:00 PM63 °FPartly sunny.8 mph77%29.95 "Hg20 mi
3:00 PM66 °FBroken clouds.12 mph73%29.96 "Hg20 mi
2:00 PM64 °FBroken clouds.12 mph78%29.96 "Hg20 mi
1:00 PM64 °FBroken clouds.10 mph78%29.96 "Hg20 mi
12:00 PM63 °FPartly sunny.12 mph83%29.97 "Hg20 mi
11:00 AM61 °FPartly sunny.8 mph83%29.97 "Hg20 mi
10:00 AM57 °FPartly sunny.7 mph94%29.97 "Hg20 mi
9:00 AM57 °FMostly cloudy.7 mph88%29.96 "Hg20 mi
8:00 AM55 °FPartly sunny.10 mph94%29.95 "Hg20 mi
7:00 AM55 °FPartly cloudy.12 mph94%29.92 "Hg20 mi
6:00 AM54 °FPartly cloudy.5 mph94%29.92 "Hg20 mi
5:00 AM55 °FPassing clouds.2 mph94%29.92 "Hg20 mi
4:00 AM55 °FPassing clouds.3 mph88%29.92 "Hg20 mi
3:00 AM55 °FPassing clouds.2 mph88%29.90 "Hg30 mi
2:00 AM55 °FClear.No wind88%29.90 "Hg30 mi
1:00 AM59 °FClear.5 mph82%29.88 "Hg30 mi
12:00 AM61 °FPassing clouds.5 mph83%29.87 "Hg30 mi
11:00 PM
Sep 21
63 °FPassing clouds.5 mph77%29.86 "Hg30 mi
10:00 PM66 °FPassing clouds.7 mph68%29.85 "Hg30 mi
9:00 PM63 °FPassing clouds.5 mph73%29.83 "Hg30 mi
8:00 PM61 °FPassing clouds.No wind77%29.82 "Hg30 mi
7:00 PM64 °FPassing clouds.No wind73%29.81 "Hg30 mi
Weather by CustomWeather, © 2014

See weather overviewHow to use our weather pages